Haleyville, AL

4:33 AM CDT on July 25, 2017 (GMT -0500)
Haleyville

Weather History for K1M4 - March, 2014

Change the Weather History Date:

Saturday, March 8, 2014

  Actual Average (KJFX) Record (KJFX)
Temperature  
Mean Temperature 48 °F -  
Max Temperature 65 °F 64 °F 81 °F (1974)
Min Temperature 32 °F 34 °F 19 °F (1982)
Degree Days  
Heating Degree Days 16    
Moisture  
Dew Point 39 °F    
Average Humidity 72    
Maximum Humidity 100    
Minimum Humidity 40    
Precipitation  
Precipitation 0.00 in - - ()
Sea Level Pressure  
Sea Level Pressure 30.17 in    
Wind  
Wind Speed 3 mph (WSW)    
Max Wind Speed 12 mph    
Max Gust Speed 17 mph    
Visibility 10 miles    
Events      
Averages and records for this station are not official NWS values.
T = Trace of Precipitation, MM = Missing Value Source: NWS Daily Summary

Daily Weather History Graph

Daily Weather History Graph

Search for Another Location

Airport or City:

Trip Planner

Search our weather history database for the weather conditions in past years. The results will help you decide how hot, cold, wet, or windy it might be!

Date:

Astronomy

Mar. 08, 2014 Rise Set
Actual Time 6:10 AM CST 5:52 PM CST
Civil Twilight 5:45 AM CST 6:17 PM CST
Nautical Twilight 5:16 AM CST 6:46 PM CST
Astronomical Twilight 4:47 AM CST 7:15 PM CST
Moon 11:07 AM CST (3/8) 12:34 AM CST (3/8)
Length of Visible Light 12h 32m
Length of Day
11h 42m
First Quarter, 52% of the Moon is Illuminated
Mar 8
First Quarter
Mar 16
Full
Mar 23
Last Quarter
Mar 30
New
Apr 7
First Quarter

Hourly Weather History & Observations

Time (CST) Temp. Windchill Dew Point Humidity Pressure Visibility Wind Dir Wind Speed Gust Speed Precip Events Conditions
12:56 AM 36.9 °F - 36.0 °F 97% 30.11 in 10.0 mi Calm Calm - N/A   Clear
1:56 AM 34.9 °F - 34.0 °F 97% 30.11 in 10.0 mi Calm Calm - N/A   Clear
2:56 AM 32.9 °F 29.8 °F 32.0 °F 96% 30.10 in 5.0 mi East 3.5 mph - N/A   Clear
3:56 AM 32.9 °F - 32.9 °F 100% 30.12 in 9.0 mi Calm Calm - N/A   Clear
4:56 AM 32.0 °F - 32.0 °F 100% 30.14 in 8.0 mi Calm Calm - N/A   Clear
5:56 AM 32.0 °F - 32.0 °F 100% 30.17 in 7.0 mi Calm Calm - N/A   Clear
6:56 AM 32.9 °F - 32.9 °F 100% 30.19 in 8.0 mi Calm Calm - N/A   Clear
7:56 AM 41.9 °F - 39.9 °F 93% 30.20 in 10.0 mi Calm Calm - N/A   Clear
8:56 AM 54.9 °F - 41.9 °F 62% 30.22 in 10.0 mi SSW 10.4 mph - N/A   Clear
9:56 AM 57.9 °F - 43.0 °F 58% 30.22 in 10.0 mi WSW 9.2 mph - N/A   Clear
10:56 AM 61.0 °F - 43.0 °F 52% 30.21 in 10.0 mi WSW 9.2 mph - N/A   Clear
11:56 AM 63.0 °F - 41.9 °F 46% 30.20 in 10.0 mi SW 9.2 mph - N/A   Mostly Cloudy
12:56 PM 64.9 °F - 39.9 °F 40% 30.17 in 10.0 mi WSW 11.5 mph - N/A   Clear
1:56 PM 65.8 °F - 41.0 °F 40% 30.16 in 10.0 mi SSW 10.4 mph 17.3 mph N/A   Clear
2:56 PM 65.8 °F - 41.0 °F 40% 30.15 in 10.0 mi WSW 5.8 mph - N/A   Partly Cloudy
3:56 PM 65.8 °F - 41.0 °F 40% 30.15 in 10.0 mi West 6.9 mph - N/A   Partly Cloudy
4:56 PM 63.9 °F - 41.9 °F 45% 30.15 in 10.0 mi WSW 6.9 mph - N/A   Clear
5:56 PM 59.9 °F - 41.9 °F 51% 30.16 in 10.0 mi Calm Calm - N/A   Clear
6:56 PM 54.0 °F - 43.0 °F 66% 30.18 in 10.0 mi Calm Calm - N/A   Clear
7:56 PM 50.9 °F - 43.0 °F 74% 30.19 in 10.0 mi Calm Calm - N/A   Clear
8:56 PM 48.9 °F - 41.9 °F 77% 30.21 in 10.0 mi Calm Calm - N/A   Clear
9:56 PM 46.9 °F - 41.9 °F 83% 30.22 in 10.0 mi Calm Calm - N/A   Clear
10:56 PM 45.9 °F 44.6 °F 41.9 °F 86% 30.22 in 10.0 mi Variable 3.5 mph - N/A   Clear
11:56 PM 46.9 °F - 41.9 °F 83% 30.23 in 10.0 mi North 3.5 mph - N/A   Clear